Printer-friendly version

IAU Minor Planet Center

Minor Planet Center

MPEC 2008-J65 : 2008 AL33

The following Minor Planet Electronic Circular may be linked-to from your own Web pages, but must not otherwise be redistributed electronically.


Read MPEC 2008-J64 Read MPEC 2008-J66


M.P.E.C. 2008-J65                                Issued 2008 May 12, 19:10 UT

     The Minor Planet Electronic Circulars contain information on unusual
         minor planets and routine data on comets.  They are published
   on behalf of Commission 20 of the International Astronomical Union by the
          Minor Planet Center, Smithsonian Astrophysical Observatory,
                          Cambridge, MA 02138, U.S.A.

             Prepared using the Tamkin Foundation Computer Network

                              MPC@CFA.HARVARD.EDU
          URL http://www.cfa.harvard.edu/iau/mpc.html  ISSN 1523-6714

                                   2008 AL33

                           Revision to MPEC 2008-B06

Additional Observations:
     K08A33L 1C2004 02 26.40792 12 14 58.36 +00 27 35.0          21.1 R EJ065695
     K08A33L 1C2004 02 26.48487 12 15 00.26 +00 26 46.6                 EJ065695
     K08A33L  C2004 03 23.27085 12 17 26.54 -02 31 04.1          21.8 V EJ065291
     K08A33L  C2004 03 23.29401 12 17 26.13 -02 31 10.1          21.8 V EJ065291
     K08A33L  C2004 03 23.31709 12 17 25.69 -02 31 15.9          22.0 V EJ065291

Observer details:

291 LPL/Spacewatch II.  Observer A. S. Descour.  Located by M. E. Sansaturio.
    1.8-m Spacewatch telescope.
695 Kitt Peak.  Observers M. W. Buie, D. E. Trilling.  Measurers M. W. Buie,
    L. H. Wasserman, R. L. Millis, J. R. Lovering, D. E. Trilling,
    G. C. Panova.  Located by M. E. Sansaturio. 4-m telescope + CCD.

Orbital elements:
2008 AL33                                                Earth MOID = 0.2541 AU
Epoch 2008 May 14.0 TT = JDT 2454600.5                  MPC
M  22.05127              (2000.0)            P               Q
n   0.24417308     Peri.  142.57901     -0.77671712     -0.62984901
a   2.5351531      Node   358.38125     +0.57030750     -0.70271387
e   0.5107949      Incl.    1.73571     +0.26731978     -0.33088282
P   4.04           H   22.7           G   0.15           U   1
Residuals in seconds of arc
040226 695  0.1-  0.1+    080116 H55  0.5+  0.0     080127 H55  0.7+  0.1+
040226 695  0.2-  0.0     080116 H55  0.3+  0.1-    080130 291  0.6+  0.3+
040323 291  0.2+  0.2+    080116 682  0.1-  0.9+    080130 291  0.3+  1.1+
040323 291  0.2+  0.1-    080116 682 (0.5-  2.1-)   080130 291  0.0   0.0
040323 291  0.2-  0.1-    080117 291  0.7-  0.4+    080210 G96  0.6+  0.5-
080115 333  0.0   0.6+    080117 291  0.5-  0.0     080210 G96  0.2-  0.2-
080115 333  0.1-  0.2+    080117 291  0.0   0.2+    080210 G96  0.2+  0.1-
080115 333  0.1+  0.0     080118 291  0.1-  0.1+    080210 G96  0.0   0.6-
080115 333  0.9+  0.4-    080118 291  0.3-  0.0     080228 691  0.2-  0.1-
080115 333  0.9+  0.4+    080118 291  0.1+  0.1+    080228 691  0.4+  0.2+
080116 G96  1.4+  0.0     080118 691  0.4-  1.0-    080228 691  0.2+  0.1-
080116 G96  0.6+  0.1+    080118 691  0.2-  0.3-    080301 691  0.2+  0.5+
080116 G96  0.2+  0.0     080118 691  0.4-  0.7-    080301 691  0.4-  0.2-
080116 291  0.7+  0.1+    080118 691  0.3+  0.3-    080301 691  0.8-  0.4-
080116 G96  0.6+  0.1+    080118 691  0.6-  0.1+    080304 691  0.3+  0.2-
080116 291  1.0-  0.6-    080118 691  0.3+  0.1+    080306 691  0.2-  0.1+
080116 291  0.2+  0.4+    080127 H55  0.5+  0.4+
080116 H55  0.5+  0.0     080127 H55  0.6+  0.1+

Gareth V. Williams           (C) Copyright 2008 MPC           M.P.E.C. 2008-J65

Read MPEC 2008-J64 Read MPEC 2008-J66


Our Web policy. Index to the CBAT/MPC/ICQ pages.


Valid HTML 4.01!